Find Starlink 33930

NORAD ID: 63776 Int'l Des: 2025-091 Owner: SPXS Country: US Constellation: starlink operational
LEOCIRCULAR

現在のビュー

3D地球を読み込み中...

About Starlink 33930

Starlink 33930 (NORAD 63776) is a starlink constellation satellite (v2 mini) launched May 2, 2025 by SPXS of US. It operates in LEO, CIRCULAR orbit with a mass of 575.00 kg.

次回通過

Passes for default location (London). Set your location on the main map for personalized predictions.

高度履歴

Loading altitude history...

軌道要素

1 63776U 25091B 26265.60090251 .00016935 00000-0 62326-3 0 9996
2 63776 42.9993 20.7883 0001088 270.1918 89.8809 15.27594257 79016
Epoch: Sep 22, 2026 • Age: 5 hours

現在のステータス

高度 482.4 km
遠地点 / 近地点 N/A
速度 7.63 km/s
衛星直下点 3.76°N, 104.55°W
打ち上げ日 May 2, 2025
運用期間 1.3 years
タイプ internet

技術仕様

分類 Payload
質量 575.00 kg
乾燥質量 530.00 kg
長さ 0.30 m
スパン 29.00 m
形状 ? Box + pan
製造者 SPXS
バスタイプ Starlink V2MO
フェーズステータス In Orbit
所有者/国 SPXS/US

Most Searched